This is the latest recevied weather packets stored in our database for station/object K4DNM. If no packets are shown the sender has not sent any weather packets the latest 10 day(s).
| Time | Temp. | Humidity | Pressure | Rain* | Wind** | Luminosity | Snow |
|---|---|---|---|---|---|---|---|
| 1778182479 | 15.56° C | 98% | 1007.3 hPa | 0.25 mm | - | 33 W/m² | - |
| 1778182236 | 15.56° C | 98% | 1007.5 hPa | 0.25 mm | - | 30 W/m² | - |
| 1778181879 | 16.11° C | 98% | 1007.3 hPa | 0.25 mm | - | 42 W/m² | - |
| 1778181639 | 16.11° C | 98% | 1007.2 hPa | 0.25 mm | - | 47 W/m² | - |
| 1778181279 | 16.67° C | 98% | 1006.8 hPa | 0.25 mm | - | 42 W/m² | - |
| 1778180978 | 16.67° C | 97% | 1006.6 hPa | 0.25 mm | - | 56 W/m² | - |
| 1778180666 | 16.67° C | 97% | 1006.6 hPa | 0.25 mm | - | 57 W/m² | - |
| 1778180364 | 16.67° C | 97% | 1006.8 hPa | 0.25 mm | - | 55 W/m² | - |
| 1778180064 | 16.67° C | 96% | 1007 hPa | 0 mm | - | 56 W/m² | - |
| 1778179752 | 17.22° C | 96% | 1007.4 hPa | 0 mm | - | 55 W/m² | - |
| 1778179452 | 17.78° C | 95% | 1007.3 hPa | 0 mm | - | 46 W/m² | - |
| 1778179149 | 18.33° C | 94% | 1006.9 hPa | 0 mm | - | 39 W/m² | - |
| 1778178852 | 18.89° C | 94% | 1006.6 hPa | 0 mm | - | 51 W/m² | - |
| 1778178552 | 20.56° C | 92% | 1006.7 hPa | 0 mm | - | 19 W/m² | - |
| 1778178313 | 21.67° C | 96% | 1006.6 hPa | 0 mm | - | 208 W/m² | - |
| 1778177952 | 21.67° C | 97% | 1006.5 hPa | 0.25 mm | - | 356 W/m² | - |
| 1778177652 | 21.11° C | 96% | 1006.7 hPa | 0.25 mm | - | 199 W/m² | - |
| 1778177352 | 21.11° C | 97% | 1006.8 hPa | 0.25 mm | - | 128 W/m² | - |
| 1778177112 | 21.11° C | 96% | 1006.8 hPa | 0.25 mm | - | 114 W/m² | - |
| 1778176752 | 21.11° C | 96% | 1006.7 hPa | 0.25 mm | - | 95 W/m² | - |
| 1778176450 | 21.11° C | 96% | 1006.7 hPa | 0.25 mm | - | 119 W/m² | - |
| 1778176197 | 21.11° C | 97% | 1006.5 hPa | 0.25 mm | - | 107 W/m² | - |
| 1778175836 | 21.11° C | 97% | 1006.6 hPa | 0.25 mm | - | 90 W/m² | - |
| 1778175521 | 21.11° C | 97% | 1006.4 hPa | 0.25 mm | - | 300 W/m² | - |
| 1778175208 | 21.11° C | 97% | 1006.4 hPa | 0.25 mm | - | 261 W/m² | - |
* Rain latest hour (hover to see other rain measurements)
** Current wind speed in m/s (hover to see current wind gust speed)